Temperature
15 15 16 16 20 21 22 23 23 22 22 22 22 22 24 24 24 22 18 17 17 17 17 17 17 17 17 17 17 17 17 17 17 17 16 16 16 16 16 16 16 16 16 16 15 15 15 15 15
15 15 16 17 21 21 22 23 22 22 22 20 20 21 22 22 19 18 17 17 17 17 16 17 17 17 17 17 17 17 17 17 17 16 16 16 16 16 16 16 16 16 16 16 15 15 15 15 15
15 15 16 19 20 22 23 22 22 21 20 20 21 21 21 20 17 17 17 16 16 16 16 16 17 17 16 16 17 17 17 16 16 16 16 16 16 16 16 16 16 16 16 15 15 15 15 15 15
14 15 17 19 20 21 22 22 21 21 20 19 21 21 19 17 16 17 17 16 16 16 16 16 16 16 16 16 16 16 16 16 16 16 16 16 16 16 16 16 15 15 15 15 15 15 15 15 15
14 16 18 18 20 21 21 20 19 21 21 20 20 21 19 16 16 17 17 16 16 15 15 16 16 16 16 16 16 16 16 16 16 16 16 16 16 16 15 15 15 15 15 15 15 15 15 14 14
14 17 18 19 20 20 20 19 19 21 21 19 19 20 18 16 16 16 16 15 15 15 15 15 16 16 16 16 16 16 16 16 16 16 16 16 15 15 15 15 15 15 15 15 15 15 14 14 14
15 17 18 19 20 20 19 18 19 20 20 19 19 20 17 16 15 16 15 15 15 15 15 15 15 15 15 16 16 16 16 16 16 16 16 15 15 15 15 15 15 15 15 15 15 14 14 14 14
13 16 17 18 19 19 19 17 17 18 19 17 17 19 18 15 15 15 15 15 15 15 15 15 15 15 15 15 16 16 16 16 15 15 15 15 15 15 15 15 15 15 15 14 14 14 14 14 14
12 15 16 17 18 18 17 17 16 16 17 16 16 17 16 15 14 14 14 14 14 14 14 14 14 15 15 15 15 15 15 15 15 15 15 15 15 15 15 15 15 15 14 14 14 14 14 14 14
13 14 16 17 17 17 16 16 16 16 17 16 15 15 14 14 14 14 14 14 14 14 14 14 14 15 15 15 15 15 15 15 15 15 15 15 14 14 14 15 14 14 14 14 14 14 14 13 13
13 14 15 15 15 15 15 15 15 16 17 17 15 14 14 14 14 14 14 14 14 14 14 14 14 15 15 15 15 15 15 15 15 14 14 14 14 14 14 14 14 14 14 14 13 13 13 13 13
12 13 13 13 13 14 14 14 15 15 16 15 14 13 13 13 14 14 14 14 14 14 14 14 14 14 14 14 14 15 15 15 14 14 14 14 14 14 14 14 14 14 13 13 13 13 13 13 13
12 12 12 12 12 13 13 14 14 14 13 13 13 13 13 13 13 13 13 13 14 14 14 14 14 14 14 14 14 14 14 14 14 14 14 14 14 14 14 14 14 14 13 13 13 13 13 13 13
11 11 12 12 12 12 13 13 13 13 12 12 12 12 12 12 13 13 13 13 13 14 14 14 14 14 14 14 14 14 14 14 14 14 14 14 14 14 14 14 14 13 13 13 13 13 12 12 12
10 11 12 12 12 12 13 13 13 12 12 12 12 12 12 12 12 12 13 13 13 13 13 14 14 14 14 14 14 14 14 14 14 14 14 14 14 14 14 14 13 13 13 13 12 12 12 12 12
11 11 11 12 12 12 13 13 13 11 11 12 12 12 11 11 12 12 12 12 13 13 13 13 13 14 14 14 14 14 14 14 14 14 14 14 14 13 13 13 13 13 13 13 12 12 12 12 12
10 11 11 11 12 12 12 12 13 11 11 11 11 11 11 11 11 12 12 12 12 12 13 13 13 13 13 14 14 14 14 14 14 13 13 13 13 13 13 13 13 13 13 12 12 12 12 12 12
10 11 11 11 11 12 12 12 12 11 11 11 11 11 10 10 11 11 11 12 12 12 12 13 13 13 13 13 13 13 13 13 13 13 13 13 13 13 13 12 12 12 12 12 12 12 12 12 12
10 10 10 11 11 11 11 11 11 10 10 11 10 10 10 10 10 10 11 11 11 12 12 12 12 12 12 12 12 12 13 13 12 12 12 12 12 12 12 12 12 12 12 12 12 11 11 11 11
10 10 10 10 10 11 11 11 11 10 10 10 10 10 9 9 10 10 10 11 11 11 11 11 11 11 11 12 12 12 12 12 12 12 12 12 12 12 12 12 12 12 11 11 11 11 11 11 11
9 10 10 9 9 10 10 11 11 11 10 9 9 9 9 9 9 9 10 10 11 11 11 11 11 11 11 11 11 11 11 11 11 11 11 11 11 12 12 11 11 11 11 11 11 11 11 10 10
9 9 9 9 9 10 10 11 11 11 10 10 9 9 9 8 8 9 9 10 10 10 11 11 11 11 11 11 11 11 11 11 11 11 11 11 11 11 11 11 11 11 11 11 10 10 10 10 10
8 9 9 9 9 9 10 10 11 10 10 11 10 9 8 8 8 8 9 9 10 10 10 10 10 10 10 10 10 10 10 10 11 11 11 11 11 11 11 11 11 10 10 10 10 10 10 10 10
8 8 9 9 9 9 10 10 11 11 11 11 10 9 8 8 8 8 8 9 9 9 10 10 10 10 10 10 10 10 10 10 10 10 10 10 10 10 10 10 10 10 10 10 10 9 9 9 9
8 8 8 8 8 9 9 9 11 10 10 10 9 8 7 7 7 7 8 8 8 9 9 9 9 9 9 9 9 9 9 9 9 10 9 10 10 10 10 10 10 10 10 9 9 9 9 9 9
7 8 8 9 9 9 8 9 10 9 8 8 7 7 7 6 6 7 7 7 8 8 8 9 9 9 9 9 9 9 9 9 9 9 9 9 9 9 9 9 9 9 9 9 9 9 8 8 8
6 7 7 7 8 8 9 9 9 8 8 8 7 7 6 5 6 6 6 7 7 7 8 8 8 8 8 9 9 9 9 9 9 9 8 9 9 9 9 9 9 9 8 8 8 8 8 8 8
6 6 7 7 8 9 9 9 10 9 8 8 7 7 6 5 5 5 6 6 7 7 7 7 7 8 8 8 8 8 8 8 8 8 8 8 8 8 8 8 8 8 8 8 8 8 8 7 7
5 5 6 7 7 9 9 10 9 9 8 7 7 6 5 4 4 5 5 6 6 6 7 7 7 7 7 7 7 7 8 8 8 8 8 8 8 7 7 7 7 7 7 7 7 7 7 7 7
4 5 5 7 6 7 9 9 7 7 7 6 6 5 4 4 4 4 4 5 5 6 6 6 6 6 6 6 7 7 7 7 7 7 7 7 7 7 7 7 7 7 6 6 6 6 6 6 6
Wind_Speed
5 3 2 3 5 6 12 8 6 7 6 4 4 4 5 4 2 2 4 11 14 15 17 18 16 15 15 15 15 15 14 14 14 14 14 14 14 14 14 14 14 14 14 15 15 15 15 15 15
4 2 3 4 7 11 11 11 10 8 4 4 5 4 4 3 2 4 6 11 14 15 16 17 17 16 15 15 15 15 14 14 14 14 14 13 13 13 14 14 14 14 14 14 14 14 14 14 14
3 3 4 4 8 14 11 8 9 6 5 5 5 3 2 2 3 4 6 12 14 14 15 16 17 16 15 15 15 15 14 14 14 14 13 13 13 13 13 14 14 14 14 14 14 14 14 14 14
3 4 4 8 15 15 9 5 6 8 6 4 5 4 2 2 2 5 10 14 14 14 15 17 16 16 15 15 15 15 14 14 13 13 13 12 13 13 13 13 13 13 13 13 13 13 13 13 13
3 5 8 12 17 13 8 4 5 8 7 6 6 4 4 3 3 8 12 14 14 13 14 16 16 15 15 15 15 14 14 14 14 13 12 12 12 13 13 13 12 13 12 12 12 12 12 12 12
5 6 10 17 17 12 9 7 6 7 7 5 6 5 3 4 6 9 11 12 12 12 13 15 15 14 14 15 14 14 14 13 13 13 12 12 12 12 12 12 12 12 12 12 11 11 11 11 11
6 8 14 16 15 13 9 7 8 7 8 6 4 5 4 5 6 9 10 11 11 12 12 12 14 14 14 14 14 14 14 13 13 13 12 12 11 11 11 12 12 12 11 11 11 11 11 10 10
5 6 13 15 15 13 7 6 5 7 6 3 3 4 4 5 7 9 9 10 10 10 10 11 12 12 12 13 13 13 13 13 13 13 12 12 11 11 11 11 11 11 11 11 11 10 10 10 9
5 8 14 15 13 10 6 6 3 3 4 3 2 0 2 7 9 10 9 9 9 9 9 10 10 10 10 11 12 13 12 12 13 12 13 11 10 10 9 10 10 10 10 10 10 10 10 9 8
7 11 16 11 9 7 7 6 5 5 6 5 3 1 5 8 10 11 12 12 11 11 10 9 9 9 9 9 10 10 10 11 10 10 11 9 8 7 8 10 10 10 10 10 10 9 8 6 6
7 10 9 6 6 5 6 5 5 7 7 6 6 6 7 9 9 10 10 11 11 11 9 8 8 9 9 7 8 7 7 8 8 9 9 8 7 7 7 7 8 8 9 8 8 7 5 4 4
7 7 6 5 4 5 6 5 5 6 5 2 4 6 8 9 10 10 10 9 8 8 8 8 8 8 8 7 7 7 6 6 6 8 8 7 6 6 6 6 6 6 5 6 6 5 5 4 4
9 7 6 4 3 3 4 6 5 5 3 1 4 6 8 8 8 8 8 7 7 8 7 7 7 8 8 7 6 6 6 6 7 7 8 7 6 6 6 5 5 5 5 5 4 4 4 4 3
7 7 6 6 5 4 4 5 5 4 1 3 4 6 6 6 7 6 6 6 6 7 7 6 7 7 8 7 7 6 6 6 7 6 7 7 6 5 5 5 5 5 5 4 4 4 4 3 3
7 7 6 6 6 4 5 6 6 3 2 3 4 4 5 5 5 6 6 6 6 6 6 6 6 6 7 7 7 6 6 6 6 6 7 7 6 6 5 5 5 4 5 5 4 3 3 3 3
7 9 8 6 6 5 7 9 5 3 3 4 4 3 4 4 4 4 4 5 5 6 6 6 5 6 6 6 6 5 5 6 5 6 6 7 7 6 5 5 5 5 5 4 4 3 3 3 3
6 9 10 6 6 5 7 7 4 3 4 4 4 3 3 3 3 3 4 4 5 5 6 6 5 6 5 5 5 5 5 5 5 5 5 6 6 6 6 5 5 6 5 4 4 3 3 3 2
9 9 9 8 5 6 8 7 3 2 4 4 4 2 2 2 2 2 3 3 4 5 5 5 5 5 5 4 4 3 4 4 4 4 5 6 6 6 6 5 6 6 5 4 4 3 3 2 2
8 9 9 6 4 6 9 8 5 3 3 4 4 3 2 2 1 1 2 2 3 3 4 4 4 4 4 4 4 4 4 4 4 4 5 6 6 7 6 5 6 6 5 5 5 4 4 3 2
7 8 6 4 3 5 7 7 5 4 4 4 4 4 3 2 1 0 1 2 2 3 3 3 4 4 4 4 4 4 4 3 3 3 4 5 6 6 6 6 5 6 5 5 5 5 3 2 3
6 8 7 4 2 5 4 5 7 6 4 3 3 3 3 3 2 1 1 1 1 2 2 3 3 3 3 3 3 3 2 2 3 4 4 5 5 5 6 6 5 6 6 5 6 6 5 4 4
5 6 6 7 5 4 6 5 7 7 6 4 4 3 3 3 2 2 1 2 2 2 2 3 3 4 3 3 4 5 5 5 5 4 4 4 5 5 5 5 5 5 5 5 5 5 5 5 4
3 3 5 6 5 3 5 5 5 6 7 7 5 4 3 2 2 2 2 3 3 2 2 2 3 3 3 4 4 5 5 5 4 4 4 4 4 5 5 6 5 5 5 5 5 5 5 5 5
2 3 3 3 3 4 6 7 5 6 8 7 5 3 2 2 2 2 2 2 2 2 1 2 3 3 3 4 4 5 5 4 4 5 5 4 3 3 4 5 5 5 5 5 5 5 5 5 5
2 4 2 3 4 4 4 6 5 3 4 5 5 4 2 2 2 2 2 2 2 2 2 2 3 3 3 4 5 5 5 5 5 5 4 4 3 3 4 4 5 5 5 5 4 4 4 5 5
4 4 2 3 4 2 3 6 3 0 2 3 3 2 1 1 2 3 3 2 2 2 3 3 3 3 3 3 4 5 5 4 4 4 4 4 3 3 4 4 4 4 4 4 4 3 3 3 4
2 3 1 1 1 2 4 4 4 2 2 2 2 2 2 2 2 3 4 3 3 2 2 3 4 3 3 3 3 3 4 4 4 4 4 3 3 2 3 4 3 3 4 4 4 3 3 3 3
0 2 1 2 2 3 4 6 4 4 5 4 4 4 3 3 3 3 3 3 3 3 3 2 3 4 3 3 3 2 3 3 3 4 3 3 3 2 3 3 3 3 3 3 3 3 3 3 3
1 2 1 2 2 3 4 3 1 4 4 5 4 4 4 4 4 3 3 3 3 3 2 2 2 1 2 2 2 3 2 3 3 3 3 3 3 3 3 3 4 4 4 4 3 3 3 3 3
3 3 3 3 2 3 4 3 1 2 3 3 4 4 4 4 3 3 3 2 2 2 2 2 2 1 1 1 2 2 2 2 2 2 3 3 3 3 3 3 4 4 4 4 4 4 4 4 4
Wind_Direction
299 270 226 212 207 217 227 215 209 192 193 198 186 195 204 194 200 100 106 150 146 148 149 149 144 141 139 136 133 132 131 129 129 128 126 123 120 116 114 112 110 107 103 100 98 96 94 93 91
283 238 210 214 219 218 220 214 206 197 173 162 176 193 193 183 66 97 134 150 149 148 151 152 145 144 141 138 136 133 132 132 131 130 129 126 124 120 118 115 111 107 104 102 101 98 96 94 92
240 232 211 206 221 224 217 201 205 186 171 175 175 192 202 150 128 134 144 152 150 149 150 146 146 145 144 141 139 137 134 133 132 130 129 128 125 122 120 118 113 109 107 105 103 101 98 96 94
212 199 213 222 222 224 227 190 188 181 181 191 183 160 145 75 123 139 147 155 151 151 150 146 146 146 145 143 141 139 137 134 131 129 127 127 126 124 120 117 115 113 111 109 107 105 101 99 98
219 207 207 221 227 223 225 224 189 194 185 183 190 175 150 99 108 139 152 156 153 150 148 149 148 146 145 143 142 140 138 135 131 129 127 126 127 127 123 120 118 117 115 113 111 108 106 104 102
202 209 214 220 221 219 217 212 203 205 190 181 187 180 146 116 130 146 154 157 154 150 147 148 146 145 147 147 145 143 140 138 135 133 131 129 125 128 129 126 123 121 120 118 116 113 111 108 105
216 210 222 224 223 217 212 209 212 205 197 187 187 182 157 142 139 149 155 155 152 150 149 151 154 152 150 149 148 146 144 142 140 137 135 132 130 130 131 131 128 126 124 121 119 117 114 111 108
232 216 223 225 225 221 202 200 214 217 205 167 195 195 175 155 146 148 151 152 152 154 155 156 159 159 159 157 151 148 146 146 144 140 137 134 133 133 132 134 131 131 130 126 123 119 116 113 111
226 219 221 219 222 216 194 196 202 232 195 188 200 269 111 138 149 150 152 155 157 160 161 162 161 161 161 160 156 154 151 149 148 145 140 144 144 141 142 133 130 133 133 129 126 121 117 118 117
212 222 225 225 227 218 201 207 198 192 202 203 192 130 126 143 156 162 167 169 169 169 169 168 166 164 162 160 161 164 164 161 163 159 157 157 151 145 140 130 132 134 135 133 131 129 133 139 130
211 227 228 231 233 219 205 211 209 203 210 212 202 178 158 158 165 171 174 175 175 172 167 171 169 167 165 163 164 164 165 166 168 168 166 161 153 147 149 147 145 146 149 147 144 151 147 144 135
212 225 226 230 246 225 215 213 215 223 233 247 205 171 164 169 176 180 181 178 173 169 171 172 170 170 170 167 167 166 166 167 167 171 171 168 162 162 159 160 162 165 165 162 165 158 152 150 146
216 217 220 231 233 229 212 217 227 243 269 236 162 161 167 173 178 183 182 178 176 174 174 174 175 174 174 169 168 171 171 169 167 171 176 176 172 170 165 166 169 171 167 169 171 167 157 155 150
208 211 221 227 226 228 216 234 235 250 216 165 155 162 170 178 181 180 181 181 183 181 179 178 178 177 177 177 177 174 172 167 167 172 179 180 178 173 173 171 172 174 176 176 177 170 165 160 160
206 212 220 225 221 218 211 237 236 248 192 178 170 170 177 186 187 188 189 191 190 186 180 178 180 178 178 178 179 174 173 172 174 177 181 184 182 178 177 177 177 176 177 177 175 167 174 173 175
204 209 215 216 216 222 215 227 230 232 196 199 197 191 186 192 192 192 193 194 192 186 182 177 174 180 178 175 178 174 176 178 177 179 184 187 186 184 181 182 182 177 179 182 182 186 192 198 204
197 207 211 214 208 208 213 231 243 230 208 207 206 198 186 190 192 195 192 193 191 185 181 177 177 178 177 175 174 171 176 181 176 177 182 186 187 189 190 188 183 181 183 187 189 199 206 208 217
194 202 211 215 206 202 211 228 249 241 205 203 204 198 187 180 202 208 198 188 185 180 177 176 177 178 170 165 168 165 173 180 177 180 186 185 188 192 194 190 187 185 187 192 195 193 200 211 218
204 207 217 224 218 207 212 228 243 225 201 199 203 206 208 215 213 170 178 178 172 168 176 180 178 176 172 171 180 188 193 187 187 190 193 193 191 193 194 191 189 192 197 198 195 190 190 202 210
210 209 212 218 216 212 212 232 231 210 202 202 207 208 210 220 218 52 179 168 168 180 182 184 184 183 187 193 193 200 195 198 194 189 196 199 197 195 196 195 195 195 197 199 198 194 199 199 206
214 207 205 208 223 201 198 230 208 200 202 206 212 216 218 224 236 243 237 198 188 202 205 201 193 189 192 188 178 176 175 184 193 201 203 202 198 196 198 202 201 202 204 206 207 206 206 207 205
217 209 207 203 200 202 203 219 217 206 210 207 209 222 234 237 246 252 256 229 221 223 214 211 203 191 189 185 189 189 197 206 214 207 203 198 197 197 198 199 201 202 208 212 213 214 219 215 212
226 222 208 203 202 213 201 214 224 201 215 217 219 223 234 246 244 244 250 237 230 223 209 207 202 193 189 189 195 199 209 212 210 200 193 196 201 201 202 198 197 201 205 212 213 211 217 220 218
206 175 167 186 200 225 211 213 223 208 219 217 216 223 239 260 272 276 280 269 237 227 209 199 193 193 196 197 201 202 209 211 204 205 199 198 202 204 211 207 201 202 203 206 210 210 214 221 222
163 157 173 192 204 222 196 218 234 216 230 230 223 226 251 281 300 308 308 297 278 241 222 210 202 206 207 204 207 209 209 210 206 207 211 206 205 209 212 208 208 205 204 200 199 203 209 215 219
202 195 208 212 210 221 204 220 228 236 241 237 228 224 280 326 312 308 306 301 288 255 230 217 213 218 218 217 219 213 208 213 213 210 207 208 210 211 205 204 205 202 199 195 190 194 204 207 212
186 199 263 275 221 224 216 239 259 238 242 233 233 238 252 280 296 307 315 312 298 276 249 230 221 217 219 221 224 218 209 208 207 208 207 206 205 199 193 191 197 197 189 187 182 191 194 195 203
329 171 175 201 205 221 231 238 232 216 230 240 245 246 253 272 286 303 309 313 309 302 285 251 231 220 217 216 218 218 212 209 205 201 197 196 193 179 177 185 184 192 183 178 179 181 189 191 200
154 167 183 196 257 238 232 236 275 233 236 240 251 259 263 270 282 295 307 314 321 318 303 270 248 225 207 205 211 213 210 201 197 194 190 187 186 178 179 187 188 193 192 186 185 191 191 195 202
211 202 200 212 223 243 251 260 82 262 267 259 267 272 269 269 282 295 303 313 324 327 311 299 297 270 240 220 211 219 215 193 189 194 192 183 186 185 184 185 190 195 198 195 195 196 201 208 211
Height
1522 1524 1526 1528 1527 1522 1516 1512 1512 1513 1515 1517 1518 1518 1516 1516 1518 1524 1525 1524 1527 1530 1532 1535 1537 1540 1541 1543 1544 1545 1546 1547 1548 1549 1550 1550 1551 1551 1552 1552 1553 1553 1553 1553 1553 1553 1553 1553 1553
1522 1524 1527 1527 1520 1517 1512 1509 1512 1512 1515 1518 1519 1519 1518 1519 1521 1522 1522 1525 1527 1530 1533 1535 1538 1540 1542 1544 1545 1546 1547 1548 1549 1550 1550 1551 1552 1553 1553 1554 1554 1554 1554 1554 1554 1554 1554 1554 1555
1522 1524 1526 1522 1515 1508 1506 1507 1509 1514 1517 1517 1518 1518 1519 1520 1521 1521 1522 1525 1528 1531 1534 1536 1538 1540 1542 1544 1546 1547 1548 1549 1550 1551 1552 1552 1553 1554 1554 1555 1555 1555 1555 1555 1555 1556 1556 1556 1556
1522 1525 1524 1518 1510 1505 1504 1508 1511 1513 1516 1517 1517 1518 1520 1521 1521 1521 1522 1526 1529 1532 1534 1536 1538 1541 1543 1545 1546 1548 1549 1550 1551 1552 1552 1553 1554 1555 1555 1556 1556 1556 1556 1557 1557 1557 1557 1557 1557
1521 1521 1518 1513 1506 1504 1508 1511 1512 1511 1513 1515 1516 1516 1519 1520 1519 1521 1523 1526 1529 1532 1534 1536 1539 1541 1543 1545 1547 1548 1549 1551 1552 1552 1553 1554 1555 1555 1556 1556 1557 1557 1557 1558 1558 1558 1558 1558 1558
1520 1516 1511 1505 1502 1505 1509 1512 1512 1511 1512 1515 1516 1516 1519 1519 1520 1521 1524 1527 1530 1532 1534 1536 1539 1541 1544 1546 1547 1549 1550 1551 1552 1553 1554 1554 1555 1556 1557 1557 1558 1558 1558 1559 1559 1559 1559 1559 1559
1517 1511 1505 1500 1501 1503 1508 1511 1511 1510 1511 1514 1516 1516 1518 1519 1520 1522 1524 1527 1530 1532 1534 1537 1539 1542 1544 1546 1547 1549 1550 1551 1552 1553 1554 1555 1556 1557 1557 1558 1558 1559 1559 1560 1560 1560 1560 1561 1561
1513 1511 1505 1501 1501 1502 1507 1510 1511 1511 1511 1515 1516 1515 1517 1519 1519 1522 1524 1527 1530 1532 1534 1537 1539 1541 1544 1545 1547 1549 1550 1551 1553 1554 1555 1555 1556 1557 1558 1558 1559 1559 1560 1560 1561 1561 1561 1561 1561
1512 1510 1501 1499 1501 1502 1507 1509 1511 1512 1513 1514 1514 1515 1516 1517 1519 1521 1524 1527 1529 1532 1534 1536 1539 1541 1543 1545 1547 1548 1550 1551 1553 1554 1555 1556 1557 1558 1558 1559 1559 1560 1560 1561 1561 1562 1562 1562 1562
1510 1504 1498 1500 1502 1503 1506 1508 1510 1511 1511 1512 1513 1514 1515 1516 1518 1520 1522 1525 1527 1530 1533 1535 1537 1540 1542 1544 1546 1548 1549 1551 1552 1553 1554 1556 1557 1557 1558 1559 1559 1560 1560 1561 1561 1562 1562 1562 1563
1506 1502 1502 1505 1505 1506 1507 1508 1509 1509 1508 1509 1511 1513 1514 1516 1518 1519 1521 1523 1526 1529 1531 1533 1536 1538 1540 1543 1545 1546 1548 1550 1551 1553 1554 1555 1556 1556 1557 1558 1559 1560 1560 1561 1561 1562 1562 1562 1563
1505 1505 1505 1506 1507 1506 1506 1507 1509 1508 1509 1510 1511 1511 1512 1515 1516 1518 1520 1523 1525 1527 1529 1532 1534 1537 1539 1541 1543 1545 1547 1548 1550 1551 1552 1554 1555 1556 1556 1557 1558 1559 1560 1560 1561 1561 1562 1562 1562
1503 1504 1505 1506 1507 1507 1506 1506 1507 1508 1509 1509 1509 1511 1512 1514 1516 1518 1520 1522 1524 1525 1528 1530 1532 1535 1537 1539 1541 1543 1545 1547 1548 1550 1551 1552 1553 1554 1555 1556 1557 1558 1559 1559 1560 1560 1561 1561 1561
1503 1504 1504 1505 1505 1506 1506 1506 1507 1507 1508 1508 1509 1510 1511 1513 1514 1516 1518 1520 1522 1524 1526 1528 1530 1533 1535 1537 1539 1541 1543 1545 1546 1548 1549 1551 1552 1553 1554 1555 1555 1556 1557 1558 1559 1559 1560 1560 1560
1502 1503 1502 1503 1503 1505 1506 1504 1505 1507 1507 1508 1508 1509 1510 1512 1513 1514 1516 1518 1520 1522 1524 1526 1528 1531 1533 1535 1537 1539 1541 1543 1544 1546 1547 1548 1550 1551 1552 1553 1554 1555 1555 1556 1557 1558 1558 1559 1559
1501 1500 1499 1500 1501 1503 1505 1501 1504 1506 1506 1507 1507 1508 1509 1511 1512 1513 1515 1517 1519 1521 1522 1524 1526 1528 1530 1533 1535 1537 1539 1540 1542 1544 1545 1546 1548 1549 1550 1551 1552 1553 1554 1554 1555 1556 1557 1557 1557
1497 1496 1495 1498 1499 1501 1501 1500 1503 1504 1505 1506 1507 1507 1508 1509 1511 1512 1514 1515 1517 1519 1520 1522 1524 1526 1528 1530 1532 1534 1536 1538 1539 1541 1542 1544 1545 1547 1548 1549 1550 1551 1551 1552 1553 1554 1554 1555 1555
1493 1493 1494 1495 1497 1499 1499 1500 1502 1503 1504 1505 1506 1507 1508 1508 1509 1510 1512 1513 1515 1517 1519 1520 1522 1523 1525 1527 1529 1531 1533 1535 1536 1538 1540 1541 1543 1544 1545 1546 1547 1548 1549 1550 1550 1551 1552 1552 1552
1492 1492 1494 1495 1497 1498 1497 1498 1500 1503 1503 1504 1505 1506 1507 1508 1509 1509 1510 1511 1513 1514 1516 1518 1519 1520 1522 1524 1526 1527 1529 1531 1533 1535 1537 1538 1540 1541 1542 1543 1545 1545 1546 1547 1548 1548 1549 1549 1550
1492 1492 1494 1496 1497 1497 1496 1497 1499 1501 1502 1503 1504 1505 1506 1507 1507 1507 1508 1509 1510 1512 1513 1515 1516 1518 1520 1522 1523 1525 1527 1528 1530 1532 1533 1535 1537 1538 1539 1540 1542 1543 1543 1544 1545 1545 1546 1546 1547
1492 1491 1493 1496 1498 1497 1497 1496 1497 1499 1502 1503 1503 1504 1505 1505 1505 1505 1506 1507 1508 1509 1511 1512 1514 1515 1517 1519 1521 1522 1524 1525 1527 1529 1530 1532 1533 1535 1536 1537 1538 1540 1540 1541 1542 1543 1543 1543 1544
1492 1492 1494 1495 1495 1495 1495 1493 1492 1495 1498 1500 1502 1503 1503 1504 1504 1504 1504 1505 1506 1507 1509 1510 1512 1513 1514 1516 1518 1519 1520 1521 1523 1525 1527 1528 1530 1531 1533 1534 1535 1536 1537 1538 1539 1539 1540 1541 1541
1494 1494 1494 1494 1495 1496 1494 1494 1489 1493 1494 1496 1499 1500 1501 1502 1502 1502 1503 1503 1504 1505 1506 1508 1509 1509 1511 1513 1515 1516 1517 1519 1520 1522 1523 1525 1526 1528 1529 1530 1531 1532 1533 1534 1535 1536 1537 1537 1537
1496 1495 1494 1495 1495 1497 1492 1491 1487 1489 1490 1492 1496 1498 1499 1500 1500 1501 1501 1501 1502 1503 1504 1505 1505 1506 1508 1510 1511 1512 1513 1515 1517 1518 1519 1521 1523 1524 1525 1527 1528 1529 1529 1530 1531 1532 1533 1533 1533
1496 1495 1494 1493 1493 1491 1493 1492 1486 1487 1491 1492 1494 1496 1497 1498 1498 1498 1499 1498 1498 1500 1501 1502 1502 1503 1505 1506 1508 1509 1510 1512 1513 1515 1516 1517 1518 1520 1521 1523 1524 1525 1526 1527 1528 1528 1529 1529 1530
1498 1496 1494 1491 1487 1488 1494 1490 1486 1490 1492 1493 1494 1495 1496 1496 1496 1497 1496 1496 1496 1497 1497 1498 1499 1500 1501 1502 1504 1506 1507 1508 1510 1511 1512 1513 1515 1516 1518 1519 1520 1521 1522 1523 1523 1524 1525 1525 1526
1499 1497 1500 1497 1495 1493 1490 1488 1488 1490 1491 1492 1493 1493 1494 1494 1494 1494 1494 1494 1493 1493 1494 1495 1496 1496 1498 1499 1500 1502 1503 1504 1506 1507 1509 1510 1511 1512 1514 1515 1516 1517 1518 1519 1519 1520 1521 1521 1522
1502 1501 1500 1498 1492 1487 1486 1484 1481 1486 1488 1490 1491 1491 1492 1492 1492 1492 1492 1491 1490 1490 1491 1492 1493 1493 1494 1495 1496 1497 1499 1500 1502 1504 1505 1506 1507 1508 1509 1510 1512 1513 1514 1515 1515 1516 1517 1517 1518
1504 1504 1502 1499 1496 1487 1483 1481 1482 1484 1486 1488 1489 1490 1490 1491 1490 1490 1490 1489 1488 1488 1489 1490 1490 1489 1490 1491 1492 1494 1495 1496 1498 1499 1500 1502 1503 1504 1505 1506 1507 1509 1510 1510 1511 1512 1512 1513 1514
1505 1504 1503 1499 1500 1495 1485 1485 1487 1487 1488 1489 1489 1489 1489 1489 1489 1488 1488 1487 1486 1486 1487 1487 1486 1487 1487 1488 1489 1490 1491 1492 1494 1495 1496 1498 1499 1500 1501 1502 1503 1504 1505 1506 1507 1508 1508 1509 1509